This is the latest recevied weather packets stored in our database for station/object KD8DNO-13. If no packets are shown the sender has not sent any weather packets the latest 10 day(s).
| Time | Temp. | Humidity | Pressure | Rain* | Wind** | Luminosity | Snow |
|---|---|---|---|---|---|---|---|
| 1788294484 | 32.22° C | 67% | 1018.9 hPa | 0 mm | - | - | - |
| 1788293884 | 31.67° C | 69% | 1018.9 hPa | 0 mm | - | - | - |
| 1788293583 | 31.67° C | 72% | 1018.9 hPa | 0 mm | - | - | - |
| 1788293284 | 30.56° C | 78% | 1018.9 hPa | 0.25 mm | - | - | - |
| 1788292983 | 30° C | 81% | 1018.9 hPa | 0.76 mm | - | - | - |
| 1788292683 | 28.89° C | 83% | 1018.9 hPa | 0.76 mm | - | - | - |
| 1788292383 | 28.89° C | 84% | 1018.9 hPa | 0.76 mm | - | - | - |
| 1788292084 | 27.78° C | 85% | 1018.9 hPa | 0.76 mm | - | - | - |
| 1788291784 | 27.78° C | 86% | 1018.9 hPa | 1.02 mm | - | - | - |
| 1788291484 | 27.78° C | 85% | 1018.6 hPa | 1.02 mm | - | - | - |
| 1788291183 | 26.67° C | 88% | 1018.6 hPa | 1.02 mm | - | - | - |
| 1788290584 | 25° C | 90% | 1018.9 hPa | 1.02 mm | - | - | - |
| 1788290284 | 25° C | 90% | 1018.9 hPa | 1.02 mm | - | - | - |
| 1788289983 | 25° C | 90% | 1019.6 hPa | 1.02 mm | - | - | - |
| 1788289685 | 25° C | 89% | 1019.6 hPa | 0.76 mm | - | - | - |
| 1788289384 | 25.56° C | 88% | 1019.9 hPa | 0.25 mm | - | - | - |
| 1788289083 | 25.56° C | 88% | 1019.9 hPa | 0.25 mm | - | - | - |
| 1788288784 | 25.56° C | 87% | 1019.9 hPa | 0.25 mm | - | - | - |
| 1788288502 | 25.56° C | 86% | 1019.9 hPa | 0.25 mm | - | - | - |
| 1788288184 | 26.11° C | 86% | 1019.9 hPa | 0 mm | - | - | - |
| 1788287883 | 26.11° C | 85% | 1020.3 hPa | 0 mm | - | - | - |
| 1788287583 | 26.67° C | 85% | 1020.3 hPa | 0 mm | - | - | - |
| 1788287284 | 26.11° C | 85% | 1020.3 hPa | 0 mm | - | - | - |
| 1788286984 | 26.11° C | 85% | 1020.6 hPa | 0 mm | - | - | - |
| 1788286684 | 26.11° C | 85% | 1020.6 hPa | 0 mm | - | - | - |
* Rain latest hour (hover to see other rain measurements)
** Current wind speed in m/s (hover to see current wind gust speed)